W5ZYX Weather Reports


Display with metric or nautical units.
time (UTC)temp
F
wind
direction
speed
MPH
gust
MPH
rain 1hr
in
rain 24hr
in
rain mn
in
humidity
%
barometer
mb
20260901205038 95 16 2.0 11.0 0.00 0.00 0.00 50 1013.8
20260901204601 95 26 7.0 11.0 0.00 0.00 0.00 49 1013.8
20260901204037 95 333 4.0 9.0 0.00 0.00 0.00 50 1013.8
20260901203536 95 24 3.0 12.0 0.00 0.00 0.00 50 1014.0
20260901203056 96 71 6.0 12.0 0.00 0.00 0.00 50 1014.1
20260901202537 95 23 1.0 10.0 0.00 0.00 0.00 50 1014.1
20260901202038 95 12 6.0 14.0 0.00 0.00 0.00 50 1014.2
20260901201558 95 15 9.0 15.0 0.00 0.00 0.00 49 1014.2
20260901201036 95 19 10.0 15.0 0.00 0.00 0.00 49 1014.3
20260901200535 95 15 9.0 13.0 0.00 0.00 0.00 49 1014.3
20260901200052 96 51 5.0 13.0 0.00 0.00 0.00 49 1014.3
20260901195536 95 62 3.0 13.0 0.00 0.00 0.00 50 1014.4
20260901195036 95 29 4.0 13.0 0.00 0.00 0.00 51 1014.5
20260901194605 95 346 4.0 10.0 0.00 0.00 0.00 51 1014.5
20260901194036 95 51 4.0 14.0 0.00 0.00 0.00 51 1014.6
20260901193536 95 73 3.0 14.0 0.00 0.00 0.00 52 1014.6
20260901193105 94 54 3.0 14.0 0.00 0.00 0.00 52 1014.7
20260901192536 94 245 4.0 12.0 0.00 0.00 0.00 52 1014.7
20260901192037 94 40 5.0 12.0 0.00 0.00 0.00 52 1014.7
20260901191555 95 92 4.0 12.0 0.00 0.00 0.00 51 1014.8
20260901191035 95 360 4.0 11.0 0.00 0.00 0.00 52 1014.9
20260901190536 94 107 4.0 11.0 0.00 0.00 0.00 52 1014.9
20260901190050 94 115 4.0 10.0 0.00 0.00 0.00 52 1015.0
20260901185537 93 24 2.0 11.0 0.00 0.00 0.00 53 1014.9
20260901185036 93 158 1.0 11.0 0.00 0.00 0.00 52 1015.0
20260901184601 93 63 6.0 11.0 0.00 0.00 0.00 51 1015.1
20260901184036 93 105 5.0 11.0 0.00 0.00 0.00 52 1015.2
20260901183535 94 66 4.0 11.0 0.00 0.00 0.00 51 1015.3
20260901183056 94 68 7.0 11.0 0.00 0.00 0.00 52 1015.4
20260901182536 94 64 4.0 10.0 0.00 0.00 0.00 53 1015.5
20260901182036 93 90 5.0 10.0 0.00 0.00 0.00 55 1015.6
20260901181552 93 178 4.0 11.0 0.00 0.00 0.00 54 1015.7
20260901181035 93 69 5.0 16.0 0.00 0.00 0.00 54 1015.9
20260901180536 94 46 7.0 16.0 0.00 0.00 0.00 55 1015.9
20260901180100 93 76 3.0 16.0 0.00 0.00 0.00 56 1016.0
20260901175537 92 89 6.0 16.0 0.00 0.00 0.00 57 1016.1
20260901175036 92 5 3.0 12.0 0.00 0.00 0.00 57 1016.1
20260901174557 92 29 5.0 12.0 0.00 0.00 0.00 57 1016.3
20260901174038 92 70 6.0 11.0 0.00 0.00 0.00 57 1016.3
20260901173536 92 67 4.0 11.0 0.00 0.00 0.00 57 1016.4
20260901173056 92 77 5.0 12.0 0.00 0.00 0.00 58 1016.5
20260901172536 92 241 1.0 12.0 0.00 0.00 0.00 58 1016.5
20260901172036 92 65 9.0 12.0 0.00 0.00 0.00 58 1016.6
20260901171600 91 35 5.0 11.0 0.00 0.00 0.00 58 1016.7
20260901171037 91 29 6.0 11.0 0.00 0.00 0.00 57 1016.7
20260901170536 92 51 5.0 10.0 0.00 0.00 0.00 58 1016.9
20260901170116 92 360 5.0 9.0 0.00 0.00 0.00 58 1016.8
20260901165536 92 29 4.0 13.0 0.00 0.00 0.00 58 1016.9
20260901165036 91 78 6.0 13.0 0.00 0.00 0.00 61 1017.0
20260901164607 90 19 3.0 12.0 0.00 0.00 0.00 63 1017.0
20260901164043 90 59 7.0 12.0 0.00 0.00 0.00 62 1017.1
20260901163537 91 49 4.0 10.0 0.00 0.00 0.00 62 1017.1
20260901163100 91 167 3.0 9.0 0.00 0.00 0.00 62 1017.1
20260901162536 90 349 3.0 11.0 0.00 0.00 0.00 63 1017.2
20260901162039 90 87 7.0 11.0 0.00 0.00 0.00 63 1017.2
20260901161601 90 17 4.0 12.0 0.00 0.00 0.00 63 1017.2
20260901161036 90 78 3.0 12.0 0.00 0.00 0.00 63 1017.1
20260901160538 90 45 5.0 10.0 0.00 0.00 0.00 65 1017.3
20260901160056 89 77 2.0 9.0 0.00 0.00 0.00 64 1017.2
20260901155536 89 98 4.0 9.0 0.00 0.00 0.00 66 1017.3
20260901155036 89 161 2.0 11.0 0.00 0.00 0.00 66 1017.3
20260901154602 89 77 5.0 11.0 0.00 0.00 0.00 66 1017.3
20260901154035 89 48 3.0 10.0 0.00 0.00 0.00 67 1017.3
20260901153537 89 326 5.0 10.0 0.00 0.00 0.00 67 1017.2
20260901153113 88 333 4.0 10.0 0.00 0.00 0.00 68 1017.3
20260901152538 88 103 2.0 10.0 0.00 0.00 0.00 69 1017.3
20260901152037 88 5 5.0 10.0 0.00 0.00 0.00 70 1017.3
20260901151601 87 328 3.0 8.0 0.00 0.00 0.00 70 1017.3
20260901151036 87 5 5.0 8.0 0.00 0.00 0.00 71 1017.4
20260901150536 87 36 2.0 8.0 0.00 0.00 0.00 72 1017.4
20260901150108 86 20 4.0 8.0 0.00 0.00 0.00 73 1017.4
20260901145537 86 334 4.0 8.0 0.00 0.00 0.00 74 1017.4
20260901145037 86 314 2.0 8.0 0.00 0.00 0.00 75 1017.4
20260901144604 86 58 4.0 8.0 0.00 0.00 0.00 75 1017.5
20260901144040 85 15 3.0 7.0 0.00 0.00 0.00 76 1017.5
20260901143536 85 286 2.0 7.0 0.00 0.00 0.00 77 1017.5
20260901143100 85 329 2.0 7.0 0.00 0.00 0.00 78 1017.5
20260901142536 84 319 3.0 6.0 0.00 0.00 0.00 78 1017.4
20260901142036 84 27 3.0 9.0 0.00 0.00 0.00 79 1017.4
20260901141553 83 326 3.0 9.0 0.00 0.00 0.00 80 1017.3
20260901141035 83 331 4.0 8.0 0.00 0.00 0.00 81 1017.5
20260901140537 83 348 3.0 6.0 0.00 0.00 0.00 81 1017.6
20260901140108 82 30 3.0 5.0 0.00 0.00 0.00 83 1017.7
20260901135537 82 343 2.0 5.0 0.00 0.00 0.00 84 1017.7
20260901135037 82 352 2.0 5.0 0.00 0.00 0.00 84 1017.7
20260901134553 81 42 3.0 6.0 0.00 0.00 0.00 85 1017.8
20260901134036 81 20 3.0 6.0 0.00 0.00 0.00 86 1017.6
20260901133537 80 15 3.0 5.0 0.00 0.00 0.00 87 1017.6
20260901133112 79 33 2.0 4.0 0.00 0.00 0.00 87 1017.6
20260901132536 79 33 2.0 4.0 0.00 0.00 0.00 88 1017.5
20260901132036 78 32 2.0 4.0 0.00 0.00 0.00 89 1017.5
20260901131555 78 32 1.0 4.0 0.00 0.00 0.00 90 1017.5
20260901131036 77 32 2.0 4.0 0.00 0.00 0.00 90 1017.5
20260901130536 77 32 1.0 4.0 0.00 0.00 0.00 91 1017.6
20260901125538 76 32 2.0 4.0 0.00 0.00 0.00 91 1017.5
20260901125037 76 0 1.0 4.0 0.00 0.00 0.00 92 1017.5
20260901124606 75 32 2.0 4.0 0.00 0.00 0.00 92 1017.4
20260901124037 75 49 2.0 5.0 0.00 0.00 0.00 92 1017.3
20260901123536 75 26 2.0 5.0 0.00 0.00 0.00 92 1017.2
20260901123104 74 153 2.0 3.0 0.00 0.00 0.00 91 1017.1
20260901122536 74 153 1.0 3.0 0.00 0.00 0.00 91 1017.1
20260901122036 74 0 0.0 2.0 0.00 0.00 0.00 90 1017.1
20260901121603 74 0 0.0 2.0 0.00 0.00 0.00 90 1017.0
20260901121036 74 0 1.0 2.0 0.00 0.00 0.00 90 1017.0
20260901120536 74 153 0.0 3.0 0.00 0.00 0.00 90 1016.9
20260901120111 74 0 0.0 3.0 0.00 0.00 0.00 90 1016.8
20260901115536 74 153 0.0 3.0 0.00 0.00 0.00 90 1016.6
20260901115036 74 0 0.0 0.0 0.00 0.00 0.00 90 1016.6
20260901114553 74 0 0.0 0.0 0.00 0.00 0.00 90 1016.5
20260901114036 74 0 0.0 0.0 0.00 0.00 0.00 90 1016.5
20260901113536 74 0 0.0 0.0 0.00 0.00 0.00 90 1016.5
20260901113101 74 0 0.0 0.0 0.00 0.00 0.00 90 1016.5
20260901112537 74 0 0.0 0.0 0.00 0.00 0.00 90 1016.6
20260901112036 74 0 0.0 0.0 0.00 0.00 0.00 90 1016.5
20260901111554 74 0 0.0 0.0 0.00 0.00 0.00 90 1016.4
20260901111036 74 0 0.0 0.0 0.00 0.00 0.00 89 1016.3
20260901110535 74 0 0.0 0.0 0.00 0.00 0.00 89 1016.4
20260901110105 74 0 0.0 0.0 0.00 0.00 0.00 89 1016.4
20260901105536 74 0 0.0 0.0 0.00 0.00 0.00 89 1016.3
20260901105041 74 0 0.0 0.0 0.00 0.00 0.00 89 1016.2
20260901104559 74 0 0.0 0.0 0.00 0.00 0.00 89 1016.2
20260901104036 74 0 0.0 0.0 0.00 0.00 0.00 89 1016.2
20260901103536 74 0 0.0 0.0 0.00 0.00 0.00 89 1016.3
20260901103053 74 0 0.0 0.0 0.00 0.00 0.00 89 1016.3
20260901102536 74 0 0.0 0.0 0.00 0.00 0.00 88 1016.3
20260901102036 74 0 0.0 0.0 0.00 0.00 0.00 88 1016.2
20260901101600 75 0 0.0 0.0 0.00 0.00 0.00 89 1016.2
20260901101036 75 0 0.0 0.0 0.00 0.00 0.00 89 1016.3
20260901100537 75 0 0.0 0.0 0.00 0.00 0.00 88 1016.2
20260901100055 75 0 0.0 0.0 0.00 0.00 0.00 88 1016.2
20260901095536 75 0 0.0 0.0 0.00 0.00 0.00 88 1016.1
20260901095036 75 0 0.0 0.0 0.00 0.00 0.00 87 1016.0
20260901094602 75 0 0.0 0.0 0.00 0.00 0.00 87 1016.0
20260901094035 75 0 0.0 0.0 0.00 0.00 0.00 87 1016.1
20260901093539 75 0 0.0 0.0 0.00 0.00 0.00 87 1016.2
20260901093058 76 0 0.0 0.0 0.00 0.00 0.00 87 1016.3
20260901092536 76 0 0.0 0.0 0.00 0.00 0.00 87 1016.3
20260901092037 76 0 0.0 0.0 0.00 0.00 0.00 87 1016.3
20260901091558 76 0 0.0 0.0 0.00 0.00 0.00 87 1016.4
20260901091036 76 0 0.0 0.0 0.00 0.00 0.00 86 1016.5
20260901090536 76 0 0.0 0.0 0.00 0.00 0.00 86 1016.5
20260901085537 77 0 0.0 0.0 0.00 0.00 0.00 86 1016.5
20260901085036 77 0 0.0 0.0 0.00 0.00 0.00 86 1016.5
20260901084607 77 0 0.0 0.0 0.00 0.00 0.00 86 1016.4
20260901084036 77 0 0.0 0.0 0.00 0.00 0.00 86 1016.4
20260901083538 77 0 0.0 0.0 0.00 0.00 0.00 86 1016.5
20260901083053 78 0 0.0 0.0 0.00 0.00 0.00 86 1016.4
20260901082535 78 0 0.0 0.0 0.00 0.00 0.00 85 1016.4
20260901082038 78 0 0.0 0.0 0.00 0.00 0.00 86 1016.5
20260901081602 78 0 0.0 2.0 0.00 0.00 0.00 86 1016.5
20260901081037 78 0 0.0 2.0 0.00 0.00 0.00 86 1016.5
20260901080537 78 0 0.0 2.0 0.00 0.00 0.00 86 1016.5
20260901075537 78 0 0.0 0.0 0.00 0.00 0.00 84 1016.4
20260901075037 78 0 0.0 0.0 0.00 0.00 0.00 84 1016.4
20260901074605 79 0 0.0 0.0 0.00 0.00 0.00 84 1016.3
20260901074037 79 0 0.0 0.0 0.00 0.00 0.00 84 1016.3
20260901073536 79 0 0.0 0.0 0.00 0.00 0.00 84 1016.3
20260901073105 79 0 0.0 0.0 0.00 0.00 0.00 83 1016.4
20260901072537 79 0 0.0 0.0 0.00 0.00 0.00 83 1016.5
20260901072037 79 0 0.0 0.0 0.00 0.00 0.00 83 1016.6
20260901071600 79 0 0.0 1.0 0.00 0.00 0.00 83 1016.4
20260901071035 79 0 0.0 1.0 0.00 0.00 0.00 82 1016.5
20260901070536 79 0 0.0 1.0 0.00 0.00 0.00 82 1016.4
20260901070104 80 153 0.0 0.0 0.00 0.00 0.00 82 1016.4
20260901065536 80 0 0.0 0.0 0.00 0.00 0.00 82 1016.5
20260901065036 80 0 0.0 1.0 0.00 0.00 0.00 82 1016.5
20260901064557 80 0 0.0 1.0 0.00 0.00 0.00 81 1016.6
20260901064037 80 0 0.0 2.0 0.00 0.00 0.00 81 1016.5
20260901063536 80 0 0.0 2.0 0.00 0.00 0.00 81 1016.6
20260901063110 80 0 0.0 3.0 0.00 0.00 0.00 81 1016.6
20260901062541 80 152 0.0 3.0 0.00 0.00 0.00 81 1016.6
20260901062038 80 152 1.0 2.0 0.00 0.00 0.00 80 1016.6
20260901061553 80 0 0.0 2.0 0.00 0.00 0.00 80 1016.5
20260901061037 80 0 0.0 3.0 0.00 0.00 0.00 80 1016.4
20260901060537 81 0 0.0 3.0 0.00 0.00 0.00 79 1016.4
20260901055537 81 152 1.0 3.0 0.00 0.00 0.00 79 1016.5
20260901055036 81 0 1.0 5.0 0.00 0.00 0.00 79 1016.4
20260901054600 81 136 1.0 5.0 0.00 0.00 0.00 79 1016.5
20260901054036 81 136 2.0 8.0 0.00 0.00 0.00 79 1016.3
20260901053539 81 140 3.0 8.0 0.00 0.00 0.00 78 1016.3
20260901053056 81 137 2.0 7.0 0.00 0.00 0.00 78 1016.3
20260901052538 81 132 2.0 7.0 0.00 0.00 0.00 78 1016.3
20260901052036 81 91 2.0 7.0 0.00 0.00 0.00 78 1016.3
20260901051616 81 133 2.0 7.0 0.00 0.00 0.00 78 1016.1
20260901051036 81 85 2.0 7.0 0.00 0.00 0.00 78 1016.1
20260901050536 80 100 2.0 7.0 0.00 0.00 0.00 78 1016.1
20260901045536 80 157 0.0 2.0 0.00 0.00 0.00 78 1015.8
20260901045037 81 157 0.0 2.0 0.00 0.00 0.00 77 1015.7
20260901044604 81 0 0.0 0.0 0.00 0.00 0.00 77 1015.6
20260901044036 81 0 0.0 0.0 0.00 0.00 0.00 76 1015.5
20260901043537 81 0 0.0 0.0 0.00 0.00 0.00 77 1015.5
20260901043056 81 0 0.0 0.0 0.00 0.00 0.00 77 1015.5
20260901042544 81 0 0.0 0.0 0.00 0.00 0.00 75 1015.5
20260901042036 82 0 0.0 0.0 0.00 0.00 0.00 75 1015.5
20260901041602 82 0 0.0 0.0 0.00 0.00 0.00 75 1015.5
20260901041036 82 0 0.0 0.0 0.00 0.00 0.00 74 1015.5
20260901040536 82 0 0.0 0.0 0.00 0.00 0.00 74 1015.4
20260901040100 82 0 0.0 0.0 0.00 0.00 0.00 74 1015.4
20260901035538 82 0 0.0 0.0 0.00 0.00 0.00 74 1015.3
20260901035036 82 0 0.0 0.0 0.00 0.00 0.00 74 1015.3
20260901034603 82 0 0.0 0.0 0.00 0.00 0.00 74 1015.4
20260901034037 83 0 0.0 0.0 0.00 0.00 0.00 73 1015.3
20260901033537 83 0 0.0 0.0 0.00 0.00 0.00 72 1015.3
20260901033113 83 0 0.0 0.0 0.00 0.00 0.00 71 1015.2
20260901032538 83 0 0.0 0.0 0.00 0.00 0.00 72 1015.2
20260901032037 83 0 0.0 0.0 0.00 0.00 0.00 71 1015.1
20260901031602 84 0 0.0 0.0 0.00 0.00 0.00 70 1015.1
20260901031037 84 0 0.0 0.0 0.00 0.00 0.00 70 1015.1
20260901030538 84 0 0.0 0.0 0.00 0.00 0.00 71 1015.1
20260901030054 84 0 0.0 0.0 0.00 0.00 0.00 71 1015.0
20260901025536 84 0 0.0 0.0 0.00 0.00 0.00 70 1015.0
20260901025036 85 0 0.0 0.0 0.00 0.00 0.00 70 1014.9
20260901024601 85 0 0.0 0.0 0.00 0.00 0.00 70 1014.7
20260901024037 85 0 0.0 0.0 0.00 0.00 0.00 69 1014.7
20260901023536 85 0 0.0 0.0 0.00 0.00 0.00 69 1014.7
20260901023102 86 0 0.0 0.0 0.00 0.00 0.00 68 1014.6
20260901022536 86 0 0.0 0.0 0.00 0.00 0.00 68 1014.6
20260901022036 86 0 0.0 0.0 0.00 0.00 0.00 67 1014.6
20260901021559 86 0 0.0 0.0 0.00 0.00 0.00 66 1014.5
20260901021037 87 0 0.0 0.0 0.00 0.00 0.00 66 1014.6
20260901020537 87 0 0.0 2.0 0.00 0.00 0.00 66 1014.5
20260901020059 87 0 0.0 3.0 0.00 0.00 0.00 66 1014.5
20260901015536 87 0 1.0 6.0 0.00 0.00 0.00 65 1014.5
20260901015036 88 157 2.0 6.0 0.00 0.00 0.00 65 1014.4
20260901014606 88 157 3.0 6.0 0.00 0.00 0.00 65 1014.3
20260901014036 88 167 3.0 6.0 0.00 0.00 0.00 64 1014.3
20260901013537 88 172 1.0 5.0 0.00 0.00 0.00 64 1014.2
20260901013058 89 172 1.0 6.0 0.00 0.00 0.00 63 1014.2
20260901012537 89 172 2.0 8.0 0.00 0.00 0.00 63 1014.2
20260901012036 89 158 3.0 9.0 0.00 0.00 0.00 63 1014.2
20260901011559 89 144 5.0 11.0 0.00 0.00 0.00 62 1014.2
20260901011036 90 149 4.0 11.0 0.00 0.00 0.00 62 1014.2
20260901010536 90 143 4.0 11.0 0.00 0.00 0.00 61 1014.0
20260901005540 91 201 6.0 12.0 0.00 0.00 0.00 59 1014.0
20260901005036 92 161 4.0 15.0 0.00 0.00 0.00 57 1014.0
20260901004615 92 169 8.0 15.0 0.00 0.00 0.00 56 1014.1
20260901004036 93 138 2.0 4.0 0.00 0.00 0.00 53 1014.0
20260901003538 93 90 2.0 4.0 0.00 0.00 0.00 53 1013.9
20260901003102 93 134 1.0 6.0 0.00 0.00 0.00 52 1013.9
20260901002537 94 109 2.0 8.0 0.00 0.00 0.00 51 1013.9
20260901002037 94 120 3.0 8.0 0.00 0.00 0.00 51 1013.9
20260901001602 94 136 3.0 9.0 0.00 0.00 0.00 51 1013.9
20260901001036 94 113 3.0 9.0 0.00 0.00 0.00 51 1013.9
20260901000536 94 138 4.0 9.0 0.00 0.00 0.00 51 1013.8
20260901000110 95 126 4.0 9.0 0.00 0.00 0.00 51 1013.7
20260831235537 95 148 4.0 11.0 0.00 0.00 0.00 51 1013.7
20260831235036 95 137 4.0 11.0 0.00 0.00 0.00 50 1013.6
20260831234555 95 116 6.0 14.0 0.00 0.00 0.00 50 1013.7
20260831234036 96 124 8.0 14.0 0.00 0.00 0.00 49 1013.7
20260831233535 96 146 9.0 14.0 0.00 0.00 0.00 48 1013.7
20260831233053 97 132 5.0 12.0 0.00 0.00 0.00 46 1013.7
20260831232537 98 143 5.0 12.0 0.00 0.00 0.00 45 1013.6
20260831232036 98 124 4.0 11.0 0.00 0.00 0.00 44 1013.6
20260831231609 98 123 5.0 11.0 0.00 0.00 0.00 44 1013.6
20260831231037 98 114 3.0 10.0 0.00 0.00 0.00 43 1013.6
20260831230536 98 52 4.0 10.0 0.00 0.00 0.00 43 1013.6
20260831230100 99 111 4.0 9.0 0.00 0.00 0.00 42 1013.7
20260831225537 99 140 2.0 9.0 0.00 0.00 0.00 43 1013.7
20260831225037 99 140 4.0 9.0 0.00 0.00 0.00 43 1013.6
20260831224600 99 140 3.0 10.0 0.00 0.00 0.00 43 1013.7
20260831224037 99 98 4.0 10.0 0.00 0.00 0.00 42 1013.7
20260831223538 99 167 5.0 10.0 0.00 0.00 0.00 42 1013.8
20260831223053 99 110 4.0 11.0 0.00 0.00 0.00 43 1013.7
20260831222537 99 146 2.0 11.0 0.00 0.00 0.00 43 1013.8
20260831222037 99 117 3.0 8.0 0.00 0.00 0.00 44 1013.8
20260831221609 98 86 4.0 8.0 0.00 0.00 0.00 44 1013.8
20260831221036 97 125 1.0 5.0 0.00 0.00 0.00 44 1013.7
20260831220536 97 106 0.0 7.0 0.00 0.00 0.00 45 1013.8
20260831220103 97 26 3.0 9.0 0.00 0.00 0.00 45 1013.8
20260831215536 98 49 3.0 9.0 0.00 0.00 0.00 44 1013.9
20260831215036 99 153 4.0 10.0 0.00 0.00 0.00 44 1013.9
20260831214556 99 58 5.0 10.0 0.00 0.00 0.00 43 1013.9
20260831214037 99 38 4.0 10.0 0.00 0.00 0.00 43 1014.1
20260831213539 99 78 3.0 9.0 0.00 0.00 0.00 42 1014.1
20260831213101 99 132 4.0 9.0 0.00 0.00 0.00 43 1014.2
20260831212537 98 117 3.0 10.0 0.00 0.00 0.00 45 1014.1
20260831212037 98 88 5.0 10.0 0.00 0.00 0.00 45 1014.2
20260831211559 97 42 3.0 12.0 0.00 0.00 0.00 45 1014.2
20260831211038 98 151 7.0 12.0 0.00 0.00 0.00 45 1014.3
20260831210536 98 205 4.0 11.0 0.00 0.00 0.00 45 1014.3
20260831210056 99 82 5.0 11.0 0.00 0.00 0.00 44 1014.4
20260831205537 99 119 3.0 9.0 0.00 0.00 0.00 45 1014.5